Weather History for LTCD - November, 2012

Change the Weather History Date:

Thursday, November 1, 2012

  Actual Average Record
Temperature  
Mean Temperature 49 °F -  
Max Temperature 61 °F 52 °F - ()
Min Temperature 35 °F 33 °F - ()
Degree Days  
Heating Degree Days 16    
Moisture  
Dew Point 43 °F    
Average Humidity 80    
Maximum Humidity 100    
Minimum Humidity 39    
Precipitation  
Precipitation 0.00 in 0.05 in - ()
Sea Level Pressure  
Sea Level Pressure 30.17 in    
Wind  
Wind Speed 2 mph ()    
Max Wind Speed 10 mph    
Max Gust Speed -    
Visibility 6.8 miles    
Events      
T = Trace of Precipitation, MM = Missing Value Source: Averaged Metar Reports

Daily Weather History Graph

Daily Weather History Graph

Search for Another Location

Airport or City:

Trip Planner

Search our weather history database for the weather conditions in past years. The results will help you decide how hot, cold, wet, or windy it might be!

Date:

Astronomy

Nov. 01, 2012 Rise Set
Actual Time 5:50 AM EET 4:19 PM EET
Civil Twilight 5:22 AM EET 4:47 PM EET
Nautical Twilight 4:50 AM EET 5:19 PM EET
Astronomical Twilight 4:19 AM EET 5:50 PM EET
Moon 6:00 PM EET (11/1) 8:04 AM EET (11/1)
Length of Visible Light 11h 25m
Length of Day
10h 29m
Waning Gibbous, 94% of the Moon is Illuminated
Nov 1
Waning Gibbous
Nov 7
Last Quarter
Nov 14
New
Nov 20
First Quarter
Nov 28
Full

Hourly Weather History & Observations

Time (EET) Temp. Dew Point Humidity Pressure Visibility Wind Dir Wind Speed Gust Speed Precip Events Conditions
12:50 AM 44.6 °F 42.8 °F 93% 30.15 in - SSE 1.2 mph - N/A   Clear
1:50 AM 46.4 °F 42.8 °F 87% 30.15 in - Calm Calm - N/A   Clear
2:00 AM 46 °F 43 °F 86%  in 12 mi Calm Calm - -   Mostly Cloudy
2:50 AM 46.4 °F 42.8 °F 87% 30.15 in - Variable 1.2 mph - N/A   Clear
3:50 AM 44.6 °F 42.8 °F 93% 30.15 in - SSE 1.2 mph - N/A   Clear
4:50 AM 46.4 °F 42.8 °F 87% 30.15 in - Calm Calm - N/A   Clear
5:50 AM 46.4 °F 42.8 °F 87% 30.15 in - Calm Calm - N/A   Clear
6:50 AM 46.4 °F 44.6 °F 93% 30.18 in 6.2 mi Calm Calm - N/A   Mostly Cloudy
7:50 AM 48.2 °F 44.6 °F 87% 30.18 in 6.2 mi SE 3.5 mph - N/A   Mostly Cloudy
8:00 AM 49 °F 45 °F 82%  in 12 mi SE 3.5 mph - -   Partly Cloudy
8:50 AM 53.6 °F 44.6 °F 72% 30.18 in 6.2 mi Variable 1.2 mph - N/A   Mostly Cloudy
9:50 AM 55.4 °F 44.6 °F 67% 30.21 in 6.2 mi West 3.5 mph - N/A   Mostly Cloudy
10:50 AM 57.2 °F 44.6 °F 63% 30.21 in 6.2 mi NW 10.4 mph - N/A   Mostly Cloudy
11:50 AM 55.4 °F 42.8 °F 63% 30.18 in 6.2 mi WNW 9.2 mph - N/A   Mostly Cloudy
12:50 PM 59.0 °F 44.6 °F 59% 30.18 in 6.2 mi WNW 8.1 mph - N/A   Mostly Cloudy
1:50 PM 60.8 °F 42.8 °F 52% 30.18 in 6.2 mi ENE 4.6 mph - N/A   Mostly Cloudy
2:00 PM 61 °F 42 °F 39%  in 6 mi ENE 4.6 mph - -   Partly Cloudy
2:50 PM 60.8 °F 42.8 °F 52% 30.15 in 6.2 mi South 3.5 mph - N/A   Mostly Cloudy
3:50 PM 59.0 °F 44.6 °F 59% 30.15 in 6.2 mi South 2.3 mph - N/A   Scattered Clouds
4:50 PM 53.6 °F 44.6 °F 72% 30.15 in 6.2 mi Variable 1.2 mph - N/A   Scattered Clouds
5:50 PM 48.2 °F 44.6 °F 87% 30.18 in 6.2 mi Calm Calm - N/A   Scattered Clouds
6:50 PM 46.4 °F 42.8 °F 87% 30.18 in 6.2 mi Calm Calm - N/A   Scattered Clouds
7:50 PM 44.6 °F 42.8 °F 93% 30.18 in 6.2 mi Calm Calm - N/A   Partly Cloudy
8:00 PM 44 °F 42 °F 90%  in 6 mi Calm Calm - -   Scattered Clouds
8:50 PM 41.0 °F 41.0 °F 100% 30.18 in 6.2 mi Calm Calm - N/A   Partly Cloudy
9:50 PM 39.2 °F 39.2 °F 100% 30.21 in 6.2 mi Calm Calm - N/A   Partly Cloudy
10:50 PM 37.4 °F 37.4 °F 100% 30.18 in - Calm Calm - N/A   Clear
11:50 PM 35.6 °F 35.6 °F 100% 30.18 in - Calm Calm - N/A   Clear